Location: Aiyekoto
(8.4333°N, 4.3667°E)
Time: 23:14:58
(UTC+00:00)

Centaur D-1A AC-31 - Pass Details

Date: 08 October 2020
Orbit: 553 x 36388 km, 27.2° (Epoch: 24 October)

Event Time Altitude Azimuth Distance (km) Brightness Sun altitude
Rises 09:37:38 0° 240° (WSW) 8,950 6.8 58.4°
Reaches altitude 10° 09:41:34 10° 239° (WSW) 9,079 6.9 59.3°
Maximum altitude 11:17:32 72° 272° (W) 24,201 10.5 75.1°
Enters shadow 19:48:01 57° 107° (ESE) 3,004 4.0 -35.0°
